Terminal Aerodrome Forecast
Issued by NWS

Home | Current Version | Previous Version | Graphics & Text | Print | Product List | Glossary On
Versions: 1 2 3 4 5 6 7 8 9 10 11 12 13 14 15 16 17 18 19 20 21
235
FTUS43 KMPX 260920 AAA
TAFRWF
TAF AMD
KRWF 260920Z 2609/2706 02005KT P6SM OVC005
     FM261500 05010KT P6SM OVC009
     FM261800 07012G18KT P6SM OVC020
     FM262200 07013G19KT P6SM OVC040=

USA.gov is the U.S. government's official web portal to all federal, state and local government web resources and services.